This demonstration page uses our WeatherBlox Daily Observations layout. Learn more.

Left ArrowRight Arrow

44.8408, -93.29828

Hourly Observations for January 28, 2022

Temp ( °F °C ) Dew Point ( °F °C ) Humidity (%) Winds ( mph kmh ) Pressure ( in mb ) Visibility ( mi km ) Precip ( " mm )
12:53 am 00:53 Mostly Clear 5 -15 -7 -21.7 57 57 NNW 6 9 30.49 1033 10 16 0.00 0.00
1:53 am 01:53 Mostly Clear 2 -16.7 -8 -22.2 63 63 NW 3 6 30.49 1033 10 16 0.00 0.00
2:53 am 02:53 Mostly Clear 2 -16.7 -8 -22.2 63 63 WNW 3 6 30.49 1033 10 16 0.00 0.00
3:53 am 03:53 Mostly Clear -1 -18.3 -10 -23.3 65 65 WNW 7 11 30.49 1032 10 16 0.00 0.00
4:53 am 04:53 Mostly Clear -2 -18.9 -9 -22.8 72 72 W 3 6 30.48 1032 10 16 0.00 0.00
5:53 am 05:53 Mostly Clear -2 -18.9 -9 -22.8 72 72 WSW 3 6 30.48 1032 9 14 0.00 0.00
6:53 am 06:53 Clear -4 -20 -9 -22.8 79 79 WSW 5 7 30.50 1033 10 16 0.00 0.00
7:53 am 07:53 Mostly Sunny -4 -20 -10 -23.3 75 75 WSW 5 7 30.50 1033 10 16 0.00 0.00
8:53 am 08:53 Mostly Sunny -4 -20 -11 -23.9 71 71 SW 5 7 30.49 1033 10 16 0.00 0.00
9:53 am 09:53 Mostly Cloudy -2 -18.9 -9 -22.8 72 72 SSW 6 9 30.48 1032 10 16 0.00 0.00
10:53 am 10:53 Mostly Cloudy 3 -16.1 -7 -21.7 62 62 W 7 11 30.48 1032 10 16 0.00 0.00
11:53 am 11:53 Partly Cloudy 5 -15 -7 -21.7 57 57 SW 7 11 30.46 1031 10 16 0.00 0.00
12:53 pm 12:53 Mostly Cloudy 8 -13.3 -8 -22.2 47 47 SSW 10 17 30.41 1030 10 16 0.00 0.00
1:20 pm 13:20 Mostly Cloudy 8 -13.3 -8 -22.2 47 47 WSW 9 15 30.44 1031 10 16 0.00 0.00
1:53 pm 13:53 Mostly Cloudy 11 -11.7 -8 -22.2 42 42 W 7 11 30.39 1029 10 16 0.00 0.00
2:53 pm 14:53 Cloudy 11 -11.7 -7 -21.7 44 44 WSW 12 19 30.37 1028 10 16 0.00 0.00
3:53 pm 15:53 Cloudy 11 -11.7 -4 -20 51 51 SW 6 9 30.35 1028 10 16 0.00 0.00
4:53 pm 16:53 Mostly Cloudy 12 -11.1 -4 -20 48 48 SW 7 11 30.35 1028 10 16 0.00 0.00
5:53 pm 17:53 Mostly Cloudy 12 -11.1 -3 -19.4 51 51 SW 6 9 30.34 1027 10 16 0.00 0.00
6:53 pm 18:53 Mostly Clear 11 -11.7 -2 -18.9 55 55 SSW 6 9 30.33 1027 10 16 0.00 0.00
7:53 pm 19:53 Mostly Clear 9 -12.8 -3 -19.4 58 58 SW 5 7 30.33 1027 10 16 0.00 0.00
8:53 pm 20:53 Mostly Clear 8 -13.3 -2 -18.9 63 63 SSW 5 7 30.31 1027 10 16 0.00 0.00
9:53 pm 21:53 Partly Cloudy 8 -13.3 -2 -18.9 63 63 SSW 6 9 30.28 1025 10 16 0.00 0.00
10:53 pm 22:53 Partly Cloudy 9 -12.8 -1 -18.3 64 64 Calm 30.26 1025 10 16 0.00 0.00
11:53 pm 23:53 Cloudy 8 -13.3 -1 -18.3 66 66 ESE 3 6 30.25 1025 10 16 0.00 0.00

Powered by AerisWeather